[TLELIST] Archives

 

[list_settings.list_name] Current TLEs

October 17th 2010 PST

HST 1 20580U 90037B 10289.06052200 .00000658 00000-0 37449-4 0 6604 2 20580 028.4692 170.7197 0003254 050.2942 309.8008 15.01062701922932 ISS (ZARYA) 1 25544U 98067A 10289.32698569 .00012888 00000-0 10066-3 0 802 2 25544 051.6460 330.8155 0007827 099.8853 005.3559 15.72036014682524 CXO 1 25867U 99040B 10288.08333333 .00000237 00000-0 10000-3 0 5245 2 25867 067.7783 047.2212 8340637 275.4915 002.2026 00.37807004 6849 ____________________________________________________________________ These 2-Line ...Continue Reading

[list_settings.list_name] Current TLEs

October 16th 2010 PST

HST 1 20580U 90037B 10286.13501496 .00000638 00000-0 35907-4 0 6598 2 20580 028.4688 189.8229 0003208 020.5896 339.4857 15.01059772922497 ISS (ZARYA) 1 25544U 98067A 10288.36645899 .00013856 00000-0 10797-3 0 732 2 25544 051.6469 335.7353 0008010 096.3709 329.3259 15.72011416682372 CXO 1 25867U 99040B 10288.08333333 .00000237 00000-0 10000-3 0 5245 2 25867 067.7783 047.2212 8340637 275.4915 002.2026 00.37807004 6849 ____________________________________________________________________ These 2-Line ...Continue Reading

[list_settings.list_name] Current TLEs

October 15th 2010 PST

HST 1 20580U 90037B 10286.13501496 .00000638 00000-0 35907-4 0 6598 2 20580 028.4688 189.8229 0003208 020.5896 339.4857 15.01059772922497 ISS (ZARYA) 1 25544U 98067A 10287.49059821 .00018066 00000-0 13936-3 0 690 2 25544 051.6462 340.2156 0007710 094.8717 050.8443 15.72001591682234 CXO 1 25867U 99040B 10288.08333333 .00000237 00000-0 10000-3 0 5245 2 25867 067.7783 047.2212 8340637 275.4915 002.2026 00.37807004 6849 ____________________________________________________________________ These 2-Line ...Continue Reading

[list_settings.list_name] Current TLEs

October 14th 2010 PST

HST 1 20580U 90037B 10286.13501496 .00000638 00000-0 35907-4 0 6598 2 20580 028.4688 189.8229 0003208 020.5896 339.4857 15.01059772922497 ISS (ZARYA) 1 25544U 98067A 10286.39532536 .00018682 00000-0 14417-3 0 629 2 25544 051.6466 345.8231 0007666 090.8107 332.4496 15.71963792682069 CXO 1 25867U 99040B 10285.41666667 .00000063 00000-0 10000-3 0 5234 2 25867 067.7650 047.3540 8337501 275.4709 359.2226 00.37809176 6832 ____________________________________________________________________ These 2-Line ...Continue Reading

[list_settings.list_name] Current TLEs

October 13th 2010 PST

HST 1 20580U 90037B 10284.20683635 .00000583 00000-0 31704-4 0 6589 2 20580 028.4691 202.4099 0003130 359.5800 000.4828 15.01057673922202 ISS (ZARYA) 1 25544U 98067A 10285.45120381 .00018114 00000-0 14017-3 0 565 2 25544 051.6470 350.6561 0007725 087.6795 029.1894 15.71924827681918 CXO 1 25867U 99040B 10285.41666667 .00000063 00000-0 10000-3 0 5234 2 25867 067.7650 047.3540 8337501 275.4709 359.2226 00.37809176 6832 ____________________________________________________________________ These 2-Line ...Continue Reading

[list_settings.list_name] Current TLEs

October 12th 2010 PST

HST 1 20580U 90037B 10281.21482795 .00000562 00000-0 30131-4 0 6570 2 20580 028.4690 221.9417 0003124 327.6229 032.4079 15.01055084921751 ISS (ZARYA) 1 25544U 98067A 10283.96741898 .00019122 00000-0 14801-3 0 506 2 25544 051.6476 358.2498 0007651 082.1499 272.5937 15.71873125681675 CXO 1 25867U 99040B 10282.79166667 .00000082 00000-0 10000-3 0 5227 2 25867 067.7525 047.5029 8331237 275.4478 001.9217 00.37808657 6823 ____________________________________________________________________ These 2-Line ...Continue Reading

[list_settings.list_name] Current TLEs

October 11th 2010 PST

HST 1 20580U 90037B 10281.21482795 .00000562 00000-0 30131-4 0 6570 2 20580 028.4690 221.9417 0003124 327.6229 032.4079 15.01055084921751 ISS (ZARYA) 1 25544U 98067A 10283.28257758 .00018870 00000-0 14629-3 0 460 2 25544 051.6479 001.7539 0007668 081.0151 355.8134 15.71845292681572 CXO 1 25867U 99040B 10282.79166667 .00000082 00000-0 10000-3 0 5227 2 25867 067.7525 047.5029 8331237 275.4478 001.9217 00.37808657 6823 ____________________________________________________________________ These 2-Line ...Continue Reading

[list_settings.list_name] Current TLEs

October 10th 2010 PST

HST 1 20580U 90037B 10281.21482795 .00000562 00000-0 30131-4 0 6570 2 20580 028.4690 221.9417 0003124 327.6229 032.4079 15.01055084921751 ISS (ZARYA) 1 25544U 98067A 10282.39481287 .00018192 00000-0 14145-3 0 399 2 25544 051.6477 006.2975 0007546 078.2634 011.6918 15.71808154681431 CXO 1 25867U 99040B 10282.79166667 .00000082 00000-0 10000-3 0 5227 2 25867 067.7525 047.5029 8331237 275.4478 001.9217 00.37808657 6823 ____________________________________________________________________ These 2-Line ...Continue Reading

[list_settings.list_name] Current TLEs

October 9th 2010 PST

HST 1 20580U 90037B 10281.21482795 .00000562 00000-0 30131-4 0 6570 2 20580 028.4690 221.9417 0003124 327.6229 032.4079 15.01055084921751 ISS (ZARYA) 1 25544U 98067A 10281.52042824 .00018368 00000-0 14296-3 0 340 2 25544 051.6479 010.7733 0007659 074.5952 104.3647 15.71775193681291 CXO 1 25867U 99040B 10280.12500000 .00000285 00000-0 10000-3 0 5219 2 25867 067.7357 047.6050 8323570 275.4697 358.8666 00.37806881 6813 ____________________________________________________________________ These 2-Line ...Continue Reading

[list_settings.list_name] Current TLEs

October 8th 2010 PST

HST 1 20580U 90037B 10280.01802476 .00000622 00000-0 34684-4 0 6562 2 20580 028.4697 229.7651 0003357 305.1190 054.9084 15.01054729921570 ISS (ZARYA) 1 25544U 98067A 10280.47157786 .00018885 00000-0 14245-3 0 277 2 25544 051.6459 016.1431 0007538 071.5610 288.6735 15.71734261 85369 CXO 1 25867U 99040B 10280.12500000 .00000285 00000-0 10000-3 0 5219 2 25867 067.7357 047.6050 8323570 275.4697 358.8666 00.37806881 6813 ____________________________________________________________________ These 2-Line ...Continue Reading
  • This mailing list is a public mailing list - anyone may join or leave, at any time.
  • This mailing list is announce-only.

International Space Station (ISS) / Hubble Space Telescope (HST) / Chandra X-Ray Observatory Orbital Data via EMAIL

Privacy Policy:

Private list